| time (UTC) | temp F | wind direction | speed knots | gust knots | rain 1hr in | rain 24hr in | rain mn in | humidity % | barometer mb |
| 20260906123427 | 77 | 28 | 2.6 | 3.5 | 0.00 | 0.00 | 0.00 | 98 | 1012.4 |
| 20260906122922 | 77 | 10 | 1.7 | 2.6 | 0.00 | 0.00 | 0.00 | 99 | 1012.5 |
| 20260906122422 | 77 | 25 | 2.6 | 2.6 | 0.00 | 0.00 | 0.00 | 99 | 1012.3 |
| 20260906121919 | 76 | 9 | 1.7 | 2.6 | 0.00 | 0.00 | 0.00 | 99 | 1012.2 |
| 20260906121414 | 76 | 1 | 2.6 | 2.6 | 0.00 | 0.00 | 0.00 | 99 | 1012.4 |
| 20260906120911 | 76 | 4 | 2.6 | 2.6 | 0.00 | 0.00 | 0.00 | 99 | 1012.1 |
| 20260906120406 | 76 | 342 | 1.7 | 2.6 | 0.00 | 0.00 | 0.00 | 99 | 1012.0 |
| 20260906115902 | 76 | 347 | 1.7 | 2.6 | 0.00 | 0.00 | 0.00 | 99 | 1012.0 |
| 20260906115357 | 76 | 344 | 1.7 | 2.6 | 0.00 | 0.00 | 0.00 | 99 | 1012.3 |
| 20260906114856 | 76 | 355 | 0.9 | 1.7 | 0.00 | 0.00 | 0.00 | 99 | 1011.8 |
| 20260906114352 | 75 | 21 | 1.7 | 2.6 | 0.00 | 0.00 | 0.00 | 99 | 1011.9 |
| 20260906113847 | 75 | 5 | 1.7 | 2.6 | 0.00 | 0.00 | 0.00 | 99 | 1011.9 |
| 20260906113346 | 75 | 23 | 0.9 | 2.6 | 0.00 | 0.00 | 0.00 | 99 | 1011.7 |
| 20260906112841 | 75 | 19 | 1.7 | 1.7 | 0.00 | 0.00 | 0.00 | 98 | 1012.0 |
| 20260906112337 | 75 | 3 | 0.9 | 1.7 | 0.00 | 0.00 | 0.00 | 98 | 1011.9 |
| 20260906111832 | 75 | 331 | 1.7 | 1.7 | 0.00 | 0.00 | 0.00 | 98 | 1011.9 |
| 20260906111331 | 75 | 15 | 0.9 | 2.6 | 0.00 | 0.00 | 0.00 | 98 | 1011.7 |
| 20260906110827 | 76 | 11 | 1.7 | 1.7 | 0.00 | 0.00 | 0.00 | 98 | 1011.7 |
| 20260906110323 | 76 | 14 | 1.7 | 2.6 | 0.00 | 0.00 | 0.00 | 98 | 1011.9 |
| 20260906105821 | 76 | 16 | 1.7 | 1.7 | 0.00 | 0.00 | 0.00 | 98 | 1011.7 |
| 20260906105317 | 76 | 348 | 1.7 | 2.6 | 0.00 | 0.00 | 0.00 | 98 | 1011.7 |
| 20260906104812 | 76 | 5 | 1.7 | 1.7 | 0.00 | 0.00 | 0.00 | 98 | 1011.7 |
| 20260906104311 | 76 | 355 | 1.7 | 2.6 | 0.00 | 0.00 | 0.00 | 98 | 1011.8 |
| 20260906103804 | 76 | 14 | 1.7 | 2.6 | 0.00 | 0.00 | 0.00 | 98 | 1011.7 |
| 20260906103303 | 76 | 359 | 1.7 | 2.6 | 0.00 | 0.00 | 0.00 | 98 | 1011.9 |
| 20260906102759 | 76 | 352 | 1.7 | 2.6 | 0.00 | 0.00 | 0.00 | 98 | 1011.6 |
| 20260906102258 | 76 | 339 | 1.7 | 2.6 | 0.00 | 0.00 | 0.00 | 98 | 1011.4 |
| 20260906101753 | 76 | 357 | 1.7 | 2.6 | 0.00 | 0.00 | 0.00 | 98 | 1011.5 |
| 20260906101248 | 76 | 4 | 1.7 | 2.6 | 0.00 | 0.00 | 0.00 | 98 | 1011.5 |
| 20260906100743 | 76 | 344 | 0.9 | 1.7 | 0.00 | 0.00 | 0.00 | 98 | 1011.3 |
| 20260906100243 | 76 | 6 | 0.9 | 1.7 | 0.00 | 0.00 | 0.00 | 98 | 1011.0 |
| 20260906095738 | 76 | 3 | 0.9 | 2.6 | 0.00 | 0.00 | 0.00 | 98 | 1011.1 |
| 20260906095233 | 76 | 351 | 1.7 | 2.6 | 0.00 | 0.00 | 0.00 | 98 | 1011.2 |
| 20260906094732 | 76 | 352 | 1.7 | 2.6 | 0.00 | 0.00 | 0.00 | 98 | 1011.3 |
| 20260906094228 | 76 | 359 | 1.7 | 2.6 | 0.00 | 0.00 | 0.00 | 98 | 1011.1 |
| 20260906093724 | 76 | 344 | 1.7 | 2.6 | 0.00 | 0.00 | 0.00 | 98 | 1011.2 |
| 20260906093214 | 76 | 12 | 0.9 | 1.7 | 0.00 | 0.00 | 0.00 | 98 | 1011.1 |
| 20260906092709 | 76 | 0 | 1.7 | 2.6 | 0.00 | 0.00 | 0.00 | 98 | 1010.9 |
| 20260906092209 | 76 | 357 | 1.7 | 2.6 | 0.00 | 0.00 | 0.00 | 98 | 1010.8 |
| 20260906091705 | 76 | 342 | 0.9 | 2.6 | 0.00 | 0.00 | 0.00 | 98 | 1010.9 |
| 20260906091201 | 76 | 3 | 1.7 | 1.7 | 0.00 | 0.00 | 0.00 | 98 | 1010.9 |
| 20260906090657 | 76 | 352 | 0.9 | 2.6 | 0.00 | 0.00 | 0.00 | 98 | 1010.9 |
| 20260906090156 | 76 | 0 | 1.7 | 1.7 | 0.00 | 0.00 | 0.00 | 98 | 1010.8 |
| 20260906085655 | 76 | 2 | 0.9 | 1.7 | 0.00 | 0.00 | 0.00 | 98 | 1011.0 |
| 20260906085154 | 76 | 10 | 1.7 | 2.6 | 0.00 | 0.00 | 0.00 | 98 | 1010.9 |
| 20260906084649 | 76 | 358 | 1.7 | 2.6 | 0.00 | 0.00 | 0.00 | 98 | 1010.8 |
| 20260906084149 | 76 | 17 | 1.7 | 2.6 | 0.00 | 0.00 | 0.00 | 98 | 1010.9 |
| 20260906083643 | 76 | 348 | 1.7 | 2.6 | 0.00 | 0.00 | 0.00 | 98 | 1011.0 |
| 20260906083139 | 76 | 357 | 1.7 | 2.6 | 0.00 | 0.00 | 0.00 | 98 | 1010.9 |
| 20260906082634 | 76 | 330 | 1.7 | 2.6 | 0.00 | 0.00 | 0.00 | 98 | 1010.7 |
| 20260906082130 | 76 | 355 | 1.7 | 2.6 | 0.00 | 0.00 | 0.00 | 98 | 1010.9 |
| 20260906081626 | 76 | 345 | 1.7 | 1.7 | 0.00 | 0.00 | 0.00 | 98 | 1010.8 |
| 20260906081120 | 76 | 10 | 1.7 | 2.6 | 0.00 | 0.00 | 0.00 | 97 | 1010.9 |
| 20260906080617 | 76 | 0 | 1.7 | 2.6 | 0.00 | 0.00 | 0.00 | 98 | 1010.5 |
| 20260906080113 | 76 | 359 | 0.9 | 1.7 | 0.00 | 0.00 | 0.00 | 97 | 1010.5 |
| 20260906075612 | 76 | 3 | 1.7 | 1.7 | 0.00 | 0.00 | 0.00 | 97 | 1010.6 |
| 20260906075107 | 76 | 346 | 0.9 | 2.6 | 0.00 | 0.00 | 0.00 | 97 | 1011.0 |
| 20260906074602 | 77 | 0 | 1.7 | 2.6 | 0.00 | 0.00 | 0.00 | 97 | 1011.0 |
| 20260906074101 | 76 | 348 | 0.9 | 1.7 | 0.00 | 0.00 | 0.00 | 97 | 1010.7 |
| 20260906073557 | 76 | 339 | 1.7 | 1.7 | 0.00 | 0.00 | 0.00 | 97 | 1010.8 |
| 20260906073052 | 77 | 352 | 0.9 | 1.7 | 0.00 | 0.00 | 0.00 | 97 | 1011.0 |
| 20260906072546 | 77 | 353 | 0.9 | 1.7 | 0.00 | 0.00 | 0.00 | 97 | 1010.8 |
| 20260906072043 | 77 | 3 | 0.9 | 1.7 | 0.00 | 0.00 | 0.00 | 97 | 1010.9 |
| 20260906071539 | 77 | 352 | 0.9 | 1.7 | 0.00 | 0.00 | 0.00 | 97 | 1010.8 |
| 20260906071034 | 77 | 347 | 0.9 | 1.7 | 0.00 | 0.00 | 0.00 | 97 | 1010.9 |
| 20260906070530 | 77 | 1 | 0.9 | 1.7 | 0.00 | 0.00 | 0.00 | 97 | 1011.0 |
| 20260906070026 | 77 | 352 | 1.7 | 1.7 | 0.00 | 0.00 | 0.00 | 97 | 1011.1 |
| 20260906065525 | 77 | 356 | 0.9 | 1.7 | 0.00 | 0.00 | 0.00 | 97 | 1011.2 |
| 20260906065021 | 77 | 12 | 0.9 | 2.6 | 0.00 | 0.00 | 0.00 | 97 | 1011.2 |
| 20260906064516 | 77 | 11 | 1.7 | 2.6 | 0.00 | 0.00 | 0.00 | 97 | 1011.4 |
| 20260906064011 | 77 | 358 | 0.9 | 2.6 | 0.00 | 0.00 | 0.00 | 97 | 1011.3 |
| 20260906063507 | 77 | 332 | 1.7 | 1.7 | 0.00 | 0.00 | 0.00 | 97 | 1011.4 |
| 20260906063002 | 77 | 5 | 1.7 | 2.6 | 0.00 | 0.00 | 0.00 | 97 | 1011.4 |
| 20260906062456 | 77 | 1 | 0.9 | 2.6 | 0.00 | 0.00 | 0.00 | 97 | 1011.5 |
| 20260906061952 | 78 | 348 | 1.7 | 1.7 | 0.00 | 0.00 | 0.00 | 97 | 1011.5 |
| 20260906061447 | 78 | 4 | 1.7 | 1.7 | 0.00 | 0.00 | 0.00 | 97 | 1011.7 |
| 20260906060941 | 78 | 338 | 1.7 | 2.6 | 0.00 | 0.00 | 0.00 | 97 | 1011.9 |
| 20260906060438 | 78 | 347 | 0.9 | 2.6 | 0.00 | 0.00 | 0.00 | 97 | 1012.0 |
| 20260906055935 | 78 | 11 | 0.9 | 2.6 | 0.00 | 0.00 | 0.00 | 97 | 1011.9 |
| 20260906055431 | 78 | 29 | 1.7 | 1.7 | 0.00 | 0.00 | 0.00 | 97 | 1012.0 |
| 20260906054926 | 78 | 33 | 1.7 | 2.6 | 0.00 | 0.00 | 0.00 | 97 | 1012.0 |
| 20260906054420 | 78 | 4 | 1.7 | 2.6 | 0.00 | 0.00 | 0.00 | 97 | 1012.0 |
| 20260906053916 | 78 | 12 | 1.7 | 2.6 | 0.00 | 0.00 | 0.00 | 97 | 1012.4 |
| 20260906053412 | 78 | 0 | 2.6 | 2.6 | 0.00 | 0.00 | 0.00 | 97 | 1012.1 |
| 20260906052908 | 78 | 6 | 2.6 | 2.6 | 0.00 | 0.00 | 0.00 | 96 | 1012.0 |
| 20260906052404 | 78 | 6 | 1.7 | 2.6 | 0.00 | 0.00 | 0.00 | 96 | 1011.9 |
| 20260906051901 | 78 | 0 | 1.7 | 2.6 | 0.00 | 0.00 | 0.00 | 96 | 1012.0 |
| 20260906051400 | 78 | 12 | 1.7 | 2.6 | 0.00 | 0.00 | 0.00 | 96 | 1011.8 |
| 20260906050856 | 78 | 8 | 1.7 | 1.7 | 0.00 | 0.00 | 0.00 | 96 | 1011.4 |
| 20260906050351 | 78 | 0 | 1.7 | 2.6 | 0.00 | 0.00 | 0.00 | 96 | 1011.6 |
| 20260906045849 | 78 | 17 | 2.6 | 2.6 | 0.00 | 0.00 | 0.00 | 96 | 1011.6 |
| 20260906045338 | 78 | 0 | 1.7 | 2.6 | 0.00 | 0.00 | 0.00 | 96 | 1011.6 |
| 20260906044835 | 78 | 23 | 2.6 | 2.6 | 0.00 | 0.00 | 0.00 | 96 | 1011.6 |
| 20260906044334 | 78 | 38 | 0.9 | 1.7 | 0.00 | 0.00 | 0.00 | 96 | 1011.4 |
| 20260906043830 | 78 | 344 | 0.9 | 3.5 | 0.00 | 0.00 | 0.00 | 96 | 1011.6 |
| 20260906043326 | 78 | 347 | 1.7 | 2.6 | 0.00 | 0.00 | 0.00 | 96 | 1011.5 |
| 20260906042827 | 78 | 13 | 1.7 | 1.7 | 0.00 | 0.00 | 0.00 | 96 | 1011.6 |
| 20260906042325 | 79 | 4 | 1.7 | 2.6 | 0.00 | 0.00 | 0.00 | 96 | 1011.5 |
| 20260906041821 | 79 | 348 | 1.7 | 2.6 | 0.00 | 0.00 | 0.00 | 96 | 1011.2 |
| 20260906041317 | 79 | 358 | 1.7 | 1.7 | 0.00 | 0.00 | 0.00 | 96 | 1011.2 |
| 20260906040811 | 79 | 0 | 0.0 | 2.6 | 0.00 | 0.00 | 0.00 | 96 | 1011.1 |
| 20260906040307 | 79 | 346 | 1.7 | 2.6 | 0.00 | 0.00 | 0.00 | 96 | 1011.4 |
| 20260906035802 | 79 | 333 | 0.0 | 0.9 | 0.00 | 0.00 | 0.00 | 96 | 1011.4 |
| 20260906035257 | 79 | 326 | 0.0 | 0.9 | 0.00 | 0.00 | 0.00 | 96 | 1011.6 |
| 20260906034757 | 79 | 359 | 1.7 | 1.7 | 0.00 | 0.00 | 0.00 | 96 | 1011.5 |
| 20260906034252 | 79 | 357 | 1.7 | 1.7 | 0.00 | 0.00 | 0.00 | 96 | 1011.7 |
| 20260906033748 | 79 | 1 | 0.9 | 1.7 | 0.00 | 0.00 | 0.00 | 95 | 1011.7 |
| 20260906033247 | 79 | 3 | 1.7 | 1.7 | 0.00 | 0.00 | 0.00 | 95 | 1011.7 |
| 20260906032744 | 79 | 324 | 0.0 | 0.9 | 0.00 | 0.00 | 0.00 | 95 | 1011.9 |
| 20260906032244 | 79 | 3 | 1.7 | 1.7 | 0.00 | 0.00 | 0.00 | 95 | 1012.0 |
| 20260906031739 | 79 | 350 | 0.9 | 1.7 | 0.00 | 0.00 | 0.00 | 95 | 1012.1 |
| 20260906031235 | 79 | 322 | 1.7 | 1.7 | 0.00 | 0.00 | 0.00 | 95 | 1012.2 |
| 20260906030734 | 79 | 357 | 1.7 | 1.7 | 0.00 | 0.00 | 0.00 | 94 | 1012.4 |
| 20260906030230 | 79 | 350 | 1.7 | 1.7 | 0.00 | 0.00 | 0.00 | 95 | 1012.3 |
| 20260906025729 | 79 | 358 | 1.7 | 1.7 | 0.00 | 0.00 | 0.00 | 95 | 1012.3 |
| 20260906025224 | 79 | 348 | 1.7 | 1.7 | 0.00 | 0.00 | 0.00 | 95 | 1012.4 |
| 20260906024723 | 79 | 359 | 1.7 | 1.7 | 0.00 | 0.00 | 0.00 | 95 | 1012.2 |
| 20260906024222 | 79 | 11 | 1.7 | 2.6 | 0.00 | 0.00 | 0.00 | 95 | 1012.3 |
| 20260906023718 | 79 | 10 | 1.7 | 2.6 | 0.00 | 0.00 | 0.00 | 95 | 1012.3 |
| 20260906023213 | 79 | 345 | 1.7 | 1.7 | 0.00 | 0.00 | 0.00 | 95 | 1012.1 |
| 20260906022708 | 79 | 344 | 1.7 | 1.7 | 0.00 | 0.00 | 0.00 | 94 | 1012.0 |
| 20260906022203 | 79 | 354 | 0.9 | 2.6 | 0.00 | 0.00 | 0.00 | 94 | 1012.3 |
| 20260906021659 | 80 | 350 | 0.9 | 1.7 | 0.00 | 0.00 | 0.00 | 93 | 1012.1 |
| 20260906021158 | 80 | 342 | 0.9 | 1.7 | 0.00 | 0.00 | 0.00 | 93 | 1011.8 |
| 20260906020653 | 80 | 342 | 1.7 | 1.7 | 0.00 | 0.00 | 0.00 | 93 | 1012.2 |
| 20260906020148 | 80 | 5 | 1.7 | 1.7 | 0.00 | 0.00 | 0.00 | 93 | 1011.9 |
| 20260906015642 | 80 | 351 | 0.9 | 1.7 | 0.00 | 0.00 | 0.00 | 93 | 1012.0 |
| 20260906015140 | 80 | 3 | 1.7 | 1.7 | 0.00 | 0.00 | 0.00 | 92 | 1012.1 |
| 20260906014635 | 80 | 2 | 1.7 | 2.6 | 0.00 | 0.00 | 0.00 | 92 | 1011.9 |
| 20260906014131 | 80 | 5 | 1.7 | 1.7 | 0.00 | 0.00 | 0.00 | 92 | 1011.8 |
| 20260906013626 | 81 | 3 | 1.7 | 1.7 | 0.00 | 0.00 | 0.00 | 92 | 1011.6 |
| 20260906013122 | 81 | 9 | 1.7 | 1.7 | 0.00 | 0.00 | 0.00 | 91 | 1011.8 |
| 20260906012616 | 81 | 9 | 1.7 | 1.7 | 0.00 | 0.00 | 0.00 | 91 | 1011.8 |
| 20260906012116 | 81 | 354 | 1.7 | 2.6 | 0.00 | 0.00 | 0.00 | 90 | 1011.5 |
| 20260906011612 | 81 | 355 | 1.7 | 2.6 | 0.00 | 0.00 | 0.00 | 90 | 1011.4 |
| 20260906011107 | 81 | 359 | 2.6 | 2.6 | 0.00 | 0.00 | 0.00 | 90 | 1011.5 |
| 20260906010602 | 81 | 353 | 1.7 | 1.7 | 0.00 | 0.00 | 0.00 | 90 | 1011.3 |
| 20260906010058 | 81 | 359 | 1.7 | 1.7 | 0.00 | 0.00 | 0.00 | 90 | 1011.0 |
| 20260906005557 | 82 | 1 | 1.7 | 1.7 | 0.00 | 0.00 | 0.00 | 89 | 1010.9 |
| 20260906005057 | 82 | 0 | 1.7 | 1.7 | 0.00 | 0.00 | 0.00 | 89 | 1010.7 |
| 20260906004556 | 82 | 358 | 1.7 | 1.7 | 0.00 | 0.00 | 0.00 | 89 | 1011.0 |
| 20260906004051 | 82 | 350 | 1.7 | 1.7 | 0.00 | 0.00 | 0.00 | 89 | 1010.7 |
| 20260906003546 | 82 | 2 | 1.7 | 1.7 | 0.00 | 0.00 | 0.00 | 88 | 1010.5 |
| 20260906003043 | 82 | 2 | 0.9 | 1.7 | 0.00 | 0.00 | 0.00 | 88 | 1010.3 |
| 20260906002543 | 82 | 346 | 1.7 | 1.7 | 0.00 | 0.00 | 0.00 | 87 | 1010.6 |
| 20260906002037 | 82 | 354 | 1.7 | 1.7 | 0.00 | 0.00 | 0.00 | 87 | 1010.3 |
| 20260906001533 | 83 | 352 | 1.7 | 1.7 | 0.00 | 0.00 | 0.00 | 87 | 1010.3 |
| 20260906001027 | 83 | 358 | 1.7 | 1.7 | 0.00 | 0.00 | 0.00 | 86 | 1010.5 |
| 20260906000523 | 83 | 354 | 1.7 | 1.7 | 0.00 | 0.00 | 0.00 | 86 | 1010.5 |
| 20260906000018 | 83 | 0 | 1.7 | 1.7 | 0.00 | 0.00 | 0.00 | 84 | 1010.4 |
| 20260905235517 | 84 | 0 | 1.7 | 1.7 | 0.00 | 0.00 | 0.00 | 82 | 1010.7 |
| 20260905235013 | 84 | 346 | 1.7 | 1.7 | 0.00 | 0.00 | 0.00 | 81 | 1010.5 |
| 20260905234509 | 84 | 349 | 1.7 | 1.7 | 0.00 | 0.00 | 0.00 | 82 | 1010.6 |
| 20260905234009 | 84 | 0 | 1.7 | 1.7 | 0.00 | 0.00 | 0.00 | 83 | 1010.4 |
| 20260905233504 | 84 | 358 | 1.7 | 1.7 | 0.00 | 0.00 | 0.00 | 81 | 1010.5 |
| 20260905233004 | 85 | 345 | 1.7 | 1.7 | 0.00 | 0.00 | 0.00 | 80 | 1010.6 |
| 20260905232459 | 85 | 13 | 1.7 | 1.7 | 0.00 | 0.00 | 0.00 | 80 | 1010.6 |
| 20260905231954 | 85 | 7 | 1.7 | 2.6 | 0.00 | 0.00 | 0.00 | 79 | 1010.7 |
| 20260905231450 | 85 | 4 | 1.7 | 1.7 | 0.00 | 0.00 | 0.00 | 79 | 1010.8 |
| 20260905230947 | 86 | 1 | 1.7 | 1.7 | 0.00 | 0.00 | 0.00 | 79 | 1010.7 |
| 20260905230444 | 86 | 0 | 1.7 | 1.7 | 0.00 | 0.00 | 0.00 | 80 | 1010.9 |
| 20260905225943 | 86 | 357 | 1.7 | 1.7 | 0.00 | 0.00 | 0.00 | 79 | 1010.6 |
| 20260905225438 | 86 | 354 | 1.7 | 1.7 | 0.00 | 0.00 | 0.00 | 78 | 1010.8 |
| 20260905224933 | 86 | 0 | 1.7 | 1.7 | 0.00 | 0.00 | 0.00 | 78 | 1010.7 |
| 20260905224429 | 87 | 350 | 1.7 | 1.7 | 0.00 | 0.00 | 0.00 | 77 | 1010.8 |
| 20260905223922 | 87 | 352 | 1.7 | 1.7 | 0.00 | 0.00 | 0.00 | 75 | 1010.6 |
| 20260905223421 | 87 | 358 | 1.7 | 1.7 | 0.00 | 0.00 | 0.00 | 74 | 1010.9 |
| 20260905222921 | 87 | 350 | 1.7 | 1.7 | 0.00 | 0.00 | 0.00 | 73 | 1010.8 |
| 20260905222420 | 87 | 346 | 1.7 | 1.7 | 0.00 | 0.00 | 0.00 | 72 | 1010.8 |
| 20260905221916 | 87 | 347 | 0.9 | 1.7 | 0.00 | 0.00 | 0.00 | 73 | 1010.9 |
| 20260905221412 | 87 | 355 | 1.7 | 1.7 | 0.00 | 0.00 | 0.00 | 72 | 1010.8 |
| 20260905220908 | 88 | 352 | 0.9 | 1.7 | 0.00 | 0.00 | 0.00 | 72 | 1010.9 |
| 20260905220404 | 88 | 345 | 1.7 | 2.6 | 0.00 | 0.00 | 0.00 | 72 | 1011.0 |
| 20260905215903 | 88 | 350 | 1.7 | 1.7 | 0.00 | 0.00 | 0.00 | 69 | 1011.0 |
| 20260905215359 | 89 | 356 | 1.7 | 1.7 | 0.00 | 0.00 | 0.00 | 69 | 1010.9 |
| 20260905214855 | 89 | 319 | 2.6 | 3.5 | 0.00 | 0.00 | 0.00 | 67 | 1011.0 |
| 20260905214350 | 89 | 357 | 1.7 | 2.6 | 0.00 | 0.00 | 0.00 | 67 | 1011.0 |
| 20260905213844 | 89 | 304 | 1.7 | 1.7 | 0.00 | 0.00 | 0.00 | 67 | 1011.1 |
| 20260905213341 | 89 | 330 | 0.9 | 1.7 | 0.00 | 0.00 | 0.00 | 68 | 1010.9 |
| 20260905212836 | 89 | 346 | 1.7 | 1.7 | 0.00 | 0.00 | 0.00 | 67 | 1010.9 |
| 20260905212336 | 89 | 333 | 0.9 | 2.6 | 0.00 | 0.00 | 0.00 | 69 | 1010.8 |
| 20260905211830 | 89 | 1 | 1.7 | 2.6 | 0.00 | 0.00 | 0.00 | 69 | 1011.0 |
| 20260905211326 | 89 | 15 | 1.7 | 3.5 | 0.00 | 0.00 | 0.00 | 67 | 1010.8 |
| 20260905210822 | 89 | 342 | 1.7 | 2.6 | 0.00 | 0.00 | 0.00 | 68 | 1011.2 |
| 20260905210322 | 90 | 322 | 0.9 | 1.7 | 0.00 | 0.00 | 0.00 | 66 | 1011.1 |
| 20260905205821 | 90 | 7 | 1.7 | 2.6 | 0.00 | 0.00 | 0.00 | 69 | 1010.9 |
| 20260905205316 | 90 | 344 | 1.7 | 2.6 | 0.00 | 0.00 | 0.00 | 67 | 1010.9 |
| 20260905204815 | 89 | 0 | 1.7 | 2.6 | 0.00 | 0.00 | 0.00 | 67 | 1011.0 |
| 20260905204311 | 89 | 311 | 2.6 | 2.6 | 0.00 | 0.00 | 0.00 | 68 | 1011.0 |
| 20260905203810 | 89 | 338 | 1.7 | 1.7 | 0.00 | 0.00 | 0.00 | 68 | 1011.2 |
| 20260905203306 | 89 | 23 | 1.7 | 1.7 | 0.00 | 0.00 | 0.00 | 70 | 1011.1 |
| 20260905202801 | 89 | 356 | 1.7 | 2.6 | 0.00 | 0.00 | 0.00 | 70 | 1011.1 |
| 20260905202256 | 89 | 335 | 1.7 | 2.6 | 0.00 | 0.00 | 0.00 | 68 | 1011.2 |
| 20260905201751 | 90 | 327 | 1.7 | 1.7 | 0.00 | 0.00 | 0.00 | 68 | 1011.1 |
| 20260905201246 | 90 | 352 | 1.7 | 1.7 | 0.00 | 0.00 | 0.00 | 68 | 1011.3 |
| 20260905200741 | 90 | 349 | 2.6 | 2.6 | 0.00 | 0.00 | 0.00 | 67 | 1011.3 |
| 20260905200237 | 90 | 326 | 1.7 | 1.7 | 0.00 | 0.00 | 0.00 | 67 | 1011.6 |
| 20260905195735 | 90 | 317 | 0.9 | 1.7 | 0.00 | 0.00 | 0.00 | 67 | 1011.5 |
| 20260905195230 | 90 | 341 | 0.0 | 1.7 | 0.00 | 0.00 | 0.00 | 67 | 1011.7 |
| 20260905194726 | 89 | 336 | 1.7 | 1.7 | 0.00 | 0.00 | 0.00 | 68 | 1011.8 |
| 20260905194225 | 90 | 309 | 1.7 | 1.7 | 0.00 | 0.00 | 0.00 | 68 | 1011.8 |
| 20260905193719 | 90 | 333 | 1.7 | 2.6 | 0.00 | 0.00 | 0.00 | 65 | 1012.0 |
| 20260905193214 | 90 | 316 | 0.9 | 1.7 | 0.00 | 0.00 | 0.00 | 66 | 1011.9 |
| 20260905192710 | 89 | 314 | 1.7 | 1.7 | 0.00 | 0.00 | 0.00 | 69 | 1012.1 |
| 20260905192206 | 89 | 337 | 2.6 | 3.5 | 0.00 | 0.00 | 0.00 | 70 | 1012.1 |
| 20260905191705 | 89 | 343 | 0.9 | 2.6 | 0.00 | 0.00 | 0.00 | 68 | 1012.0 |
| 20260905191203 | 89 | 299 | 1.7 | 1.7 | 0.00 | 0.00 | 0.00 | 73 | 1012.2 |
| 20260905190702 | 89 | 339 | 0.9 | 2.6 | 0.00 | 0.00 | 0.00 | 69 | 1012.1 |
| 20260905190201 | 90 | 9 | 1.7 | 1.7 | 0.00 | 0.00 | 0.00 | 67 | 1012.1 |
| 20260905185700 | 90 | 317 | 0.9 | 2.6 | 0.00 | 0.00 | 0.00 | 69 | 1012.3 |
| 20260905185155 | 89 | 348 | 0.0 | 2.6 | 0.00 | 0.00 | 0.00 | 67 | 1012.3 |
| 20260905184655 | 89 | 7 | 1.7 | 1.7 | 0.00 | 0.00 | 0.00 | 73 | 1012.3 |
| 20260905184154 | 89 | 326 | 0.9 | 2.6 | 0.00 | 0.00 | 0.00 | 69 | 1012.3 |
| 20260905183648 | 89 | 348 | 1.7 | 1.7 | 0.00 | 0.00 | 0.00 | 69 | 1012.4 |
| 20260905183143 | 89 | 23 | 2.6 | 2.6 | 0.00 | 0.00 | 0.00 | 71 | 1012.3 |
| 20260905182642 | 89 | 264 | 0.0 | 1.7 | 0.00 | 0.00 | 0.00 | 68 | 1012.6 |
| 20260905182142 | 89 | 358 | 2.6 | 2.6 | 0.00 | 0.00 | 0.00 | 71 | 1012.5 |
| 20260905181638 | 88 | 14 | 1.7 | 2.6 | 0.00 | 0.00 | 0.00 | 73 | 1012.8 |
| 20260905181137 | 88 | 339 | 1.7 | 2.6 | 0.00 | 0.00 | 0.00 | 73 | 1013.0 |
| 20260905180632 | 88 | 292 | 2.6 | 2.6 | 0.00 | 0.00 | 0.00 | 76 | 1013.0 |
| 20260905180127 | 87 | 340 | 0.0 | 1.7 | 0.00 | 0.00 | 0.00 | 72 | 1013.2 |
| 20260905175626 | 87 | 307 | 1.7 | 1.7 | 0.00 | 0.00 | 0.00 | 73 | 1013.2 |
| 20260905175122 | 86 | 180 | 0.0 | 4.3 | 0.00 | 0.00 | 0.00 | 74 | 1013.3 |
| 20260905174617 | 87 | 355 | 2.6 | 2.6 | 0.00 | 0.00 | 0.00 | 74 | 1013.3 |
| 20260905174113 | 87 | 320 | 2.6 | 2.6 | 0.00 | 0.00 | 0.00 | 76 | 1013.7 |
| 20260905173609 | 87 | 3 | 1.7 | 2.6 | 0.00 | 0.00 | 0.00 | 77 | 1013.5 |
| 20260905173104 | 87 | 341 | 2.6 | 2.6 | 0.00 | 0.00 | 0.00 | 73 | 1013.7 |
| 20260905172603 | 87 | 302 | 0.9 | 1.7 | 0.00 | 0.00 | 0.00 | 73 | 1013.6 |
| 20260905172058 | 87 | 349 | 0.0 | 1.7 | 0.00 | 0.00 | 0.00 | 74 | 1013.7 |
| 20260905171554 | 86 | 318 | 2.6 | 2.6 | 0.00 | 0.00 | 0.00 | 76 | 1013.9 |
| 20260905171050 | 86 | 355 | 0.9 | 2.6 | 0.00 | 0.00 | 0.00 | 76 | 1013.7 |
| 20260905170547 | 86 | 318 | 2.6 | 2.6 | 0.00 | 0.00 | 0.00 | 76 | 1013.9 |
| 20260905170041 | 85 | 348 | 1.7 | 1.7 | 0.00 | 0.00 | 0.00 | 79 | 1013.9 |
| 20260905165536 | 85 | 353 | 0.9 | 1.7 | 0.00 | 0.00 | 0.00 | 80 | 1014.0 |
| 20260905165032 | 85 | 346 | 1.7 | 2.6 | 0.00 | 0.00 | 0.00 | 78 | 1014.0 |
| 20260905164526 | 86 | 13 | 0.0 | 1.7 | 0.00 | 0.00 | 0.00 | 73 | 1014.2 |
| 20260905164020 | 87 | 237 | 1.7 | 2.6 | 0.00 | 0.00 | 0.00 | 74 | 1014.0 |
| 20260905163511 | 86 | 238 | 0.0 | 2.6 | 0.00 | 0.00 | 0.00 | 76 | 1014.1 |
| 20260905163006 | 86 | 358 | 1.7 | 2.6 | 0.00 | 0.00 | 0.00 | 79 | 1014.3 |
| 20260905162502 | 86 | 8 | 1.7 | 2.6 | 0.00 | 0.00 | 0.00 | 78 | 1014.2 |
| 20260905161957 | 86 | 305 | 0.9 | 1.7 | 0.00 | 0.00 | 0.00 | 79 | 1014.3 |
| 20260905161456 | 85 | 20 | 2.6 | 2.6 | 0.00 | 0.00 | 0.00 | 78 | 1014.3 |
| 20260905160954 | 84 | 23 | 0.9 | 1.7 | 0.00 | 0.00 | 0.00 | 80 | 1014.4 |
| 20260905160448 | 83 | 349 | 2.6 | 2.6 | 0.00 | 0.00 | 0.00 | 83 | 1014.4 |
| 20260905155948 | 83 | 342 | 1.7 | 2.6 | 0.00 | 0.00 | 0.00 | 82 | 1014.6 |
| 20260905155443 | 84 | 333 | 1.7 | 1.7 | 0.00 | 0.00 | 0.00 | 81 | 1014.8 |
| 20260905154941 | 83 | 348 | 2.6 | 3.5 | 0.00 | 0.00 | 0.00 | 82 | 1014.6 |
| 20260905154437 | 83 | 335 | 1.7 | 2.6 | 0.00 | 0.00 | 0.00 | 81 | 1014.7 |
| 20260905153932 | 82 | 335 | 2.6 | 3.5 | 0.00 | 0.00 | 0.00 | 83 | 1014.8 |
| 20260905153428 | 82 | 357 | 2.6 | 2.6 | 0.00 | 0.00 | 0.00 | 83 | 1014.6 |
| 20260905152928 | 81 | 347 | 0.9 | 1.7 | 0.00 | 0.00 | 0.00 | 87 | 1014.8 |
| 20260905152427 | 81 | 318 | 0.0 | 3.5 | 0.00 | 0.00 | 0.00 | 86 | 1014.7 |
| 20260905151922 | 81 | 315 | 3.5 | 3.5 | 0.00 | 0.00 | 0.00 | 88 | 1015.0 |
| 20260905151418 | 81 | 331 | 1.7 | 2.6 | 0.00 | 0.00 | 0.00 | 86 | 1014.8 |
| 20260905150918 | 80 | 332 | 2.6 | 2.6 | 0.00 | 0.00 | 0.00 | 86 | 1015.1 |
| 20260905150413 | 80 | 17 | 1.7 | 1.7 | 0.00 | 0.00 | 0.00 | 88 | 1015.0 |
| 20260905145909 | 80 | 348 | 1.7 | 2.6 | 0.00 | 0.00 | 0.00 | 90 | 1015.3 |
| 20260905145404 | 80 | 0 | 2.6 | 3.5 | 0.00 | 0.00 | 0.00 | 89 | 1015.0 |
| 20260905144903 | 79 | 3 | 2.6 | 2.6 | 0.00 | 0.00 | 0.00 | 91 | 1015.0 |
| 20260905144359 | 79 | 353 | 2.6 | 2.6 | 0.00 | 0.00 | 0.00 | 91 | 1015.1 |
| 20260905143857 | 79 | 9 | 2.6 | 3.5 | 0.00 | 0.00 | 0.00 | 92 | 1015.0 |
| 20260905143352 | 79 | 5 | 2.6 | 2.6 | 0.00 | 0.00 | 0.00 | 91 | 1014.9 |
| 20260905142851 | 79 | 341 | 1.7 | 2.6 | 0.00 | 0.00 | 0.00 | 92 | 1015.0 |
| 20260905142350 | 78 | 4 | 1.7 | 2.6 | 0.00 | 0.00 | 0.00 | 94 | 1014.9 |
| 20260905141847 | 78 | 0 | 0.9 | 2.6 | 0.00 | 0.00 | 0.00 | 94 | 1015.0 |
| 20260905141342 | 78 | 16 | 1.7 | 2.6 | 0.00 | 0.00 | 0.00 | 95 | 1014.7 |
| 20260905140838 | 78 | 6 | 2.6 | 3.5 | 0.00 | 0.00 | 0.00 | 95 | 1015.0 |
| 20260905140337 | 78 | 22 | 2.6 | 4.3 | 0.00 | 0.00 | 0.00 | 95 | 1015.0 |
| 20260905135836 | 77 | 8 | 1.7 | 2.6 | 0.00 | 0.00 | 0.00 | 96 | 1014.9 |
| 20260905135332 | 77 | 19 | 2.6 | 2.6 | 0.00 | 0.00 | 0.00 | 96 | 1014.9 |
| 20260905134827 | 77 | 13 | 1.7 | 2.6 | 0.00 | 0.00 | 0.00 | 97 | 1015.0 |
| 20260905134320 | 77 | 351 | 1.7 | 2.6 | 0.00 | 0.00 | 0.00 | 98 | 1014.9 |
| 20260905133814 | 77 | 349 | 1.7 | 2.6 | 0.00 | 0.00 | 0.00 | 98 | 1014.7 |
| 20260905133310 | 76 | 10 | 2.6 | 4.3 | 0.00 | 0.00 | 0.00 | 99 | 1014.8 |
| 20260905132809 | 76 | 346 | 1.7 | 2.6 | 0.00 | 0.00 | 0.00 | 99 | 1014.7 |
| 20260905132306 | 76 | 3 | 1.7 | 2.6 | 0.00 | 0.00 | 0.00 | 99 | 1014.9 |
| 20260905131759 | 76 | 11 | 2.6 | 3.5 | 0.00 | 0.00 | 0.00 | 99 | 1014.6 |
| 20260905131255 | 76 | 358 | 1.7 | 3.5 | 0.00 | 0.00 | 0.00 | 99 | 1014.8 |
| 20260905130749 | 76 | 13 | 1.7 | 2.6 | 0.00 | 0.00 | 0.00 | 99 | 1014.9 |
| 20260905130249 | 76 | 24 | 0.9 | 2.6 | 0.00 | 0.00 | 0.00 | 99 | 1014.7 |
| 20260905125744 | 76 | 13 | 2.6 | 2.6 | 0.00 | 0.00 | 0.00 | 99 | 1014.7 |
| 20260905125239 | 76 | 9 | 1.7 | 2.6 | 0.00 | 0.00 | 0.00 | 99 | 1014.5 |
| 20260905124736 | 76 | 5 | 1.7 | 2.6 | 0.00 | 0.00 | 0.00 | 99 | 1014.7 |
| 20260905124231 | 75 | 28 | 1.7 | 2.6 | 0.00 | 0.00 | 0.00 | 99 | 1014.6 |
| 20260905123726 | 75 | 7 | 1.7 | 2.6 | 0.00 | 0.00 | 0.00 | 99 | 1014.7 |